Location: Sternwarte_Laufen
(47.9344°N, 12.9346°E)
Time: 08:06:50
(UTC+02:00)

ISS - Pass Details

Date: 17 March 2018
Orbit: 402 x 407 km, 51.6° (Epoch: 25 June)

Event Time Altitude Azimuth Distance (km) Brightness Sun altitude
Exits shadow 03:02:42 - 85° (E) 1,611 -0.1 -31.3°
Enters shadow 04:03:02 -60° 290° (WNW) 11,532 3.5 -22.8°
Maximum altitude 04:35:53 68° 207° (SSW) 448 -3.9 -17.7°
